This is the latest recevied weather packets stored in our database for station/object SP3SWJ-13. If no packets are shown the sender has not sent any weather packets the latest 10 day(s).
| Time | Temp. | Humidity | Pressure | Rain* | Wind** | Luminosity | Snow |
|---|---|---|---|---|---|---|---|
| 1778076628 | 17.22° C | 72% | 996.2 hPa | - | - | 110 W/m² | - |
| 1778076327 | 17.22° C | 70% | 996.2 hPa | - | - | 62 W/m² | - |
| 1778076026 | 17.78° C | 68% | 996.2 hPa | - | - | 15 W/m² | - |
| 1778075725 | 18.33° C | 67% | 996 hPa | - | - | 66 W/m² | - |
| 1778075424 | 17.78° C | 67% | 996 hPa | - | - | 176 W/m² | - |
| 1778075123 | 17.22° C | 68% | 996 hPa | - | - | 184 W/m² | - |
| 1778074823 | 17.22° C | 69% | 996 hPa | - | - | 117 W/m² | - |
| 1778074521 | 17.22° C | 69% | 996 hPa | - | - | 68 W/m² | - |
| 1778074220 | 17.22° C | 70% | 996 hPa | - | - | 68 W/m² | - |
| 1778073920 | 17.22° C | 68% | 995.9 hPa | - | - | 32 W/m² | - |
| 1778073619 | 17.78° C | 67% | 995.9 hPa | - | - | 20 W/m² | - |
| 1778073318 | 17.78° C | 65% | 995.9 hPa | - | - | 25 W/m² | - |
| 1778073017 | 17.78° C | 64% | 995.8 hPa | - | - | 17 W/m² | - |
| 1778072716 | 17.78° C | 64% | 995.8 hPa | - | - | 18 W/m² | - |
| 1778072415 | 17.78° C | 64% | 995.8 hPa | - | - | 32 W/m² | - |
| 1778072114 | 17.78° C | 63% | 995.8 hPa | - | - | 28 W/m² | - |
| 1778071813 | 17.78° C | 62% | 995.7 hPa | - | - | 76 W/m² | - |
| 1778071512 | 18.33° C | 62% | 995.7 hPa | - | - | 179 W/m² | - |
| 1778071211 | 18.33° C | 62% | 995.8 hPa | - | - | 134 W/m² | - |
| 1778070911 | 18.33° C | 62% | 995.9 hPa | - | - | 66 W/m² | - |
| 1778070609 | 17.78° C | 62% | 995.8 hPa | - | - | 48 W/m² | - |
| 1778070309 | 18.33° C | 61% | 995.7 hPa | - | - | 54 W/m² | - |
| 1778070008 | 18.33° C | 62% | 995.8 hPa | - | - | 107 W/m² | - |
| 1778069707 | 18.33° C | 61% | 995.7 hPa | - | - | 179 W/m² | - |
| 1778069406 | 18.33° C | 61% | 995.6 hPa | - | - | 226 W/m² | - |
* Rain since midnight (hover to see other rain measurements)
** Current wind speed in m/s (hover to see current wind gust speed)